Location: Newark
(15.5700°N, 75.3700°E)
Time: 16:48:02
(UTC+00:00)

ISS - Pass Details

Date: 17 November 2019
Orbit: 411 x 421 km, 51.6° (Epoch: 08 December)

Event Time Altitude Azimuth Distance (km) Brightness Sun altitude
Exits shadow 00:10:25 20° 306° (NW) 1,032 -2.4 -12.6°
Maximum altitude 00:12:31 55° 234° (SW) 507 -3.6 -12.1°
Drops below altitude 10° 00:15:48 10° 155° (SSE) 1,488 -0.4 -11.3°
Sets 00:17:54 0° 151° (SSE) 2,347 0.8 -10.8°
